Time,TemperatureF,DewpointF,PressureIn,WindDirection,WindDirectionDegrees,WindSpeedMPH,WindSpeedGustMPH,Humidity,HourlyPrecipIn,Conditions,Clouds,dailyrainin,SoftwareType,DateUTC
2013-06-12 00:06:00,84.0,72.0,29.93,South,175,1.0,4.0,68,0.00,,,0.00,weatherlink.com 1.10,2013-06-12 05:06:00,
2013-06-12 00:21:00,83.6,72.0,29.94,South,190,4.0,4.0,69,0.00,,,0.00,weatherlink.com 1.10,2013-06-12 05:21:00,
2013-06-12 00:37:00,83.4,72.0,29.94,SE,137,4.0,6.0,69,0.00,,,0.00,weatherlink.com 1.10,2013-06-12 05:37:00,
2013-06-12 00:51:00,83.0,72.0,29.94,South,181,0.0,5.0,70,0.00,,,0.00,weatherlink.com 1.10,2013-06-12 05:51:00,
2013-06-12 01:06:00,82.5,72.0,29.94,SE,146,3.0,5.0,71,0.00,,,0.00,weatherlink.com 1.10,2013-06-12 06:06:00,
2013-06-12 01:22:00,82.2,72.0,29.93,South,177,1.0,5.0,72,0.00,,,0.00,weatherlink.com 1.10,2013-06-12 06:22:00,
2013-06-12 01:37:00,81.8,72.0,29.93,SSE,164,1.0,5.0,73,0.00,,,0.00,weatherlink.com 1.10,2013-06-12 06:37:00,
2013-06-12 01:52:00,81.3,72.0,29.93,South,189,1.0,3.0,74,0.00,,,0.00,weatherlink.com 1.10,2013-06-12 06:52:00,
2013-06-12 02:07:00,80.9,72.0,29.92,SSE,165,2.0,5.0,75,0.00,,,0.00,weatherlink.com 1.10,2013-06-12 07:07:00,
2013-06-12 02:22:00,80.6,72.0,29.92,SSE,157,3.0,5.0,75,0.00,,,0.00,weatherlink.com 1.10,2013-06-12 07:22:00,
2013-06-12 02:37:00,80.3,72.0,29.92,SSE,168,0.0,3.0,76,0.00,,,0.00,weatherlink.com 1.10,2013-06-12 07:37:00,
2013-06-12 02:52:00,80.0,72.0,29.92,South,187,0.0,2.0,77,0.00,,,0.00,weatherlink.com 1.10,2013-06-12 07:52:00,
2013-06-12 03:07:00,79.7,72.0,29.92,South,187,0.0,5.0,78,0.00,,,0.00,weatherlink.com 1.10,2013-06-12 08:07:00,
2013-06-12 03:22:00,79.3,72.0,29.92,SSE,152,1.0,2.0,78,0.00,,,0.00,weatherlink.com 1.10,2013-06-12 08:22:00,
2013-06-12 03:37:00,79.0,72.0,29.92,SSE,160,0.0,3.0,79,0.00,,,0.00,weatherlink.com 1.10,2013-06-12 08:37:00,
2013-06-12 03:52:00,78.8,72.0,29.93,South,174,0.0,3.0,80,0.00,,,0.00,weatherlink.com 1.10,2013-06-12 08:52:00,
2013-06-12 04:07:00,78.6,72.0,29.93,South,172,1.0,3.0,81,0.00,,,0.00,weatherlink.com 1.10,2013-06-12 09:07:00,
2013-06-12 04:22:00,78.2,72.0,29.93,SSE,150,0.0,2.0,81,0.00,,,0.00,weatherlink.com 1.10,2013-06-12 09:22:00,
2013-06-12 04:37:00,77.8,72.0,29.94,SSE,149,1.0,2.0,82,0.00,,,0.00,weatherlink.com 1.10,2013-06-12 09:37:00,
2013-06-12 04:52:00,76.8,72.0,29.94,SSE,149,0.0,0.0,84,0.00,,,0.00,weatherlink.com 1.10,2013-06-12 09:52:00,
2013-06-12 05:07:00,76.0,72.0,29.95,SSE,149,0.0,1.0,86,0.00,,,0.00,weatherlink.com 1.10,2013-06-12 10:07:00,
2013-06-12 05:22:00,75.2,72.0,29.95,SSE,149,0.0,1.0,88,0.00,,,0.00,weatherlink.com 1.10,2013-06-12 10:22:00,
2013-06-12 05:37:00,75.1,71.0,29.96,SSE,149,0.0,1.0,88,0.00,,,0.00,weatherlink.com 1.10,2013-06-12 10:37:00,
2013-06-12 05:52:00,75.7,72.0,29.96,SSW,204,0.0,2.0,87,0.00,,,0.00,weatherlink.com 1.10,2013-06-12 10:52:00,
2013-06-12 06:07:00,76.0,72.0,29.96,South,189,1.0,3.0,87,0.00,,,0.00,weatherlink.com 1.10,2013-06-12 11:07:00,
2013-06-12 06:22:00,76.8,72.0,29.96,SSE,156,2.0,3.0,86,0.00,,,0.00,weatherlink.com 1.10,2013-06-12 11:22:00,
2013-06-12 06:37:00,77.0,73.0,29.97,SSE,157,1.0,3.0,86,0.00,,,0.00,weatherlink.com 1.10,2013-06-12 11:37:00,
2013-06-12 06:52:00,77.6,73.0,29.97,SSE,163,1.0,3.0,85,0.00,,,0.00,weatherlink.com 1.10,2013-06-12 11:52:00,
2013-06-12 07:07:00,78.6,73.0,29.97,South,183,1.0,4.0,83,0.00,,,0.00,weatherlink.com 1.10,2013-06-12 12:07:00,
2013-06-12 07:22:00,79.8,74.0,29.98,South,170,0.0,4.0,82,0.00,,,0.00,weatherlink.com 1.10,2013-06-12 12:22:00,
2013-06-12 07:37:00,81.2,75.0,29.98,South,187,2.0,5.0,80,0.00,,,0.00,weatherlink.com 1.10,2013-06-12 12:37:00,
2013-06-12 07:52:00,82.8,75.0,29.98,South,185,1.0,3.0,76,0.00,,,0.00,weatherlink.com 1.10,2013-06-12 12:52:00,
2013-06-12 08:07:00,84.0,75.0,29.98,South,189,0.0,5.0,74,0.00,,,0.00,weatherlink.com 1.10,2013-06-12 13:07:00,
2013-06-12 08:22:00,85.2,75.0,29.99,SE,134,1.0,4.0,71,0.00,,,0.00,weatherlink.com 1.10,2013-06-12 13:22:00,
2013-06-12 08:37:00,86.3,75.0,29.99,SSW,203,3.0,5.0,70,0.00,,,0.00,weatherlink.com 1.10,2013-06-12 13:37:00,
2013-06-12 08:52:00,86.8,76.0,29.99,SSW,208,3.0,6.0,69,0.00,,,0.00,weatherlink.com 1.10,2013-06-12 13:52:00,
2013-06-12 09:08:00,87.4,75.0,29.99,SSW,201,2.0,11.0,67,0.00,,,0.00,weatherlink.com 1.10,2013-06-12 14:08:00,
2013-06-12 09:23:00,88.5,75.0,30.00,South,191,1.0,7.0,65,0.00,,,0.00,weatherlink.com 1.10,2013-06-12 14:23:00,
2013-06-12 09:38:00,89.2,75.0,30.00,South,181,2.0,6.0,64,0.00,,,0.00,weatherlink.com 1.10,2013-06-12 14:38:00,
2013-06-12 09:53:00,90.6,75.0,30.00,SSW,204,7.0,9.0,61,0.00,,,0.00,weatherlink.com 1.10,2013-06-12 14:53:00,
2013-06-12 10:08:00,91.1,75.0,30.00,South,181,2.0,5.0,60,0.00,,,0.00,weatherlink.com 1.10,2013-06-12 15:08:00,
2013-06-12 10:23:00,92.0,75.0,30.00,SE,129,5.0,8.0,58,0.00,,,0.00,weatherlink.com 1.10,2013-06-12 15:23:00,
2013-06-12 10:38:00,91.9,76.0,30.00,SE,138,2.0,9.0,59,0.00,,,0.00,weatherlink.com 1.10,2013-06-12 15:38:00,
2013-06-12 10:53:00,92.9,75.0,30.00,South,183,1.0,6.0,57,0.00,,,0.00,weatherlink.com 1.10,2013-06-12 15:53:00,
2013-06-12 11:08:00,93.7,76.0,30.00,South,176,0.0,7.0,56,0.00,,,0.00,weatherlink.com 1.10,2013-06-12 16:08:00,
2013-06-12 11:23:00,94.4,76.0,30.00,SSW,212,4.0,11.0,55,0.00,,,0.00,weatherlink.com 1.10,2013-06-12 16:23:00,
2013-06-12 11:38:00,95.0,76.0,29.99,SE,131,3.0,6.0,54,0.00,,,0.00,weatherlink.com 1.10,2013-06-12 16:38:00,
2013-06-12 11:53:00,94.8,76.0,29.99,SSW,207,2.0,5.0,54,0.00,,,0.00,weatherlink.com 1.10,2013-06-12 16:53:00,
2013-06-12 12:08:00,95.9,76.0,29.99,NNW,330,2.0,7.0,52,0.00,,,0.00,weatherlink.com 1.10,2013-06-12 17:08:00,
2013-06-12 12:23:00,96.0,76.0,29.98,SW,220,2.0,5.0,53,0.00,,,0.00,weatherlink.com 1.10,2013-06-12 17:23:00,
2013-06-12 12:38:00,96.7,75.0,29.97,SE,146,3.0,8.0,50,0.00,,,0.00,weatherlink.com 1.10,2013-06-12 17:38:00,
2013-06-12 12:53:00,96.7,75.0,29.97,SSW,210,6.0,7.0,49,0.00,,,0.00,weatherlink.com 1.10,2013-06-12 17:53:00,
2013-06-12 13:08:00,96.6,74.0,29.96,SSW,203,2.0,7.0,48,0.00,,,0.00,weatherlink.com 1.10,2013-06-12 18:08:00,
2013-06-12 13:23:00,97.3,73.0,29.96,South,191,2.0,8.0,46,0.00,,,0.00,weatherlink.com 1.10,2013-06-12 18:23:00,
2013-06-12 13:38:00,97.7,74.0,29.95,SSE,156,4.0,6.0,47,0.00,,,0.00,weatherlink.com 1.10,2013-06-12 18:38:00,
2013-06-12 13:53:00,96.9,74.0,29.95,East,100,6.0,7.0,48,0.00,,,0.00,weatherlink.com 1.10,2013-06-12 18:53:00,
2013-06-12 14:08:00,98.6,74.0,29.94,WSW,253,3.0,6.0,45,0.00,,,0.00,weatherlink.com 1.10,2013-06-12 19:08:00,
2013-06-12 14:23:00,97.6,74.0,29.94,SSE,148,3.0,9.0,47,0.00,,,0.00,weatherlink.com 1.10,2013-06-12 19:23:00,
2013-06-12 14:38:00,98.7,75.0,29.93,South,181,1.0,6.0,47,0.00,,,0.00,weatherlink.com 1.10,2013-06-12 19:38:00,
2013-06-12 14:53:00,98.8,73.0,29.93,South,186,1.0,9.0,43,0.00,,,0.00,weatherlink.com 1.10,2013-06-12 19:53:00,
2013-06-12 15:08:00,98.7,74.0,29.92,SSE,166,3.0,5.0,45,0.00,,,0.00,weatherlink.com 1.10,2013-06-12 20:08:00,
2013-06-12 15:23:00,98.4,74.0,29.91,SSW,207,1.0,7.0,45,0.00,,,0.00,weatherlink.com 1.10,2013-06-12 20:23:00,
2013-06-12 15:38:00,97.9,74.0,29.91,South,188,3.0,7.0,46,0.00,,,0.00,weatherlink.com 1.10,2013-06-12 20:38:00,
2013-06-12 15:53:00,98.1,73.0,29.90,SW,220,4.0,10.0,45,0.00,,,0.00,weatherlink.com 1.10,2013-06-12 20:53:00,
2013-06-12 16:08:00,98.1,73.0,29.90,SSW,204,2.0,8.0,44,0.00,,,0.00,weatherlink.com 1.10,2013-06-12 21:08:00,
2013-06-12 16:23:00,96.0,74.0,29.89,SE,135,3.0,10.0,49,0.00,,,0.00,weatherlink.com 1.10,2013-06-12 21:23:00,
2013-06-12 16:38:00,94.2,74.0,29.89,South,176,3.0,14.0,52,0.00,,,0.00,weatherlink.com 1.10,2013-06-12 21:38:00,
2013-06-12 16:53:00,94.4,74.0,29.89,SSW,200,3.0,14.0,51,0.00,,,0.00,weatherlink.com 1.10,2013-06-12 21:53:00,
2013-06-12 17:08:00,94.5,73.0,29.88,SW,219,1.0,8.0,50,0.00,,,0.00,weatherlink.com 1.10,2013-06-12 22:08:00,
2013-06-12 17:23:00,94.8,73.0,29.87,SSE,167,1.0,13.0,49,0.00,,,0.00,weatherlink.com 1.10,2013-06-12 22:23:00,
2013-06-12 17:38:00,95.4,72.0,29.87,SSW,195,1.0,6.0,47,0.00,,,0.00,weatherlink.com 1.10,2013-06-12 22:38:00,
2013-06-12 17:53:00,95.1,73.0,29.87,South,182,2.0,8.0,49,0.00,,,0.00,weatherlink.com 1.10,2013-06-12 22:53:00,
2013-06-12 18:09:00,94.5,73.0,29.86,South,174,0.0,10.0,50,0.00,,,0.00,weatherlink.com 1.10,2013-06-12 23:09:00,
2013-06-12 18:24:00,93.9,73.0,29.86,South,178,2.0,8.0,50,0.00,,,0.00,weatherlink.com 1.10,2013-06-12 23:24:00,
2013-06-12 18:39:00,93.4,73.0,29.86,SSE,149,3.0,9.0,51,0.00,,,0.00,weatherlink.com 1.10,2013-06-12 23:39:00,
2013-06-12 18:54:00,93.0,73.0,29.85,South,170,2.0,12.0,52,0.00,,,0.00,weatherlink.com 1.10,2013-06-12 23:54:00,
2013-06-12 19:09:00,92.7,73.0,29.86,SSW,195,1.0,5.0,53,0.00,,,0.00,weatherlink.com 1.10,2013-06-13 00:09:00,
2013-06-12 19:24:00,92.1,73.0,29.86,SSW,192,2.0,4.0,54,0.00,,,0.00,weatherlink.com 1.10,2013-06-13 00:24:00,
2013-06-12 19:39:00,91.7,73.0,29.86,SSE,156,0.0,4.0,54,0.00,,,0.00,weatherlink.com 1.10,2013-06-13 00:39:00,
2013-06-12 19:54:00,91.1,73.0,29.86,SSW,194,4.0,7.0,55,0.00,,,0.00,weatherlink.com 1.10,2013-06-13 00:54:00,
2013-06-12 20:09:00,90.3,72.0,29.86,SSE,154,2.0,6.0,55,0.00,,,0.00,weatherlink.com 1.10,2013-06-13 01:09:00,
2013-06-12 20:24:00,89.7,72.0,29.86,South,187,4.0,7.0,56,0.00,,,0.00,weatherlink.com 1.10,2013-06-13 01:24:00,
2013-06-12 20:39:00,89.0,72.0,29.87,SSE,150,4.0,6.0,57,0.00,,,0.00,weatherlink.com 1.10,2013-06-13 01:39:00,
2013-06-12 20:54:00,88.5,72.0,29.87,SE,134,2.0,7.0,58,0.00,,,0.00,weatherlink.com 1.10,2013-06-13 01:54:00,
2013-06-12 21:09:00,88.1,72.0,29.87,SSE,161,1.0,4.0,60,0.00,,,0.00,weatherlink.com 1.10,2013-06-13 02:09:00,
2013-06-12 21:24:00,87.7,73.0,29.88,South,191,1.0,7.0,61,0.00,,,0.00,weatherlink.com 1.10,2013-06-13 02:24:00,
2013-06-12 21:39:00,87.3,73.0,29.88,SSE,158,5.0,5.0,62,0.00,,,0.00,weatherlink.com 1.10,2013-06-13 02:39:00,
2013-06-12 21:54:00,87.0,73.0,29.88,SSE,165,0.0,7.0,63,0.00,,,0.00,weatherlink.com 1.10,2013-06-13 02:54:00,
2013-06-12 22:09:00,86.6,73.0,29.89,SSE,161,1.0,8.0,64,0.00,,,0.00,weatherlink.com 1.10,2013-06-13 03:09:00,
2013-06-12 22:24:00,86.2,73.0,29.88,SW,216,3.0,7.0,64,0.00,,,0.00,weatherlink.com 1.10,2013-06-13 03:24:00,
2013-06-12 22:39:00,85.6,73.0,29.89,SSE,164,3.0,8.0,66,0.00,,,0.00,weatherlink.com 1.10,2013-06-13 03:39:00,
2013-06-12 22:54:00,85.3,73.0,29.88,South,177,1.0,6.0,66,0.00,,,0.00,weatherlink.com 1.10,2013-06-13 03:54:00,
2013-06-12 23:09:00,84.9,73.0,29.88,SSW,194,1.0,7.0,67,0.00,,,0.00,weatherlink.com 1.10,2013-06-13 04:09:00,
2013-06-12 23:24:00,84.5,73.0,29.88,South,178,1.0,4.0,68,0.00,,,0.00,weatherlink.com 1.10,2013-06-13 04:24:00,
2013-06-12 23:39:00,84.3,73.0,29.88,SE,146,1.0,8.0,68,0.00,,,0.00,weatherlink.com 1.10,2013-06-13 04:39:00,
2013-06-12 23:54:00,83.9,72.0,29.88,SSE,167,2.0,5.0,68,0.00,,,0.00,weatherlink.com 1.10,2013-06-13 04:54:00,